Date String (YYYY-MM-DD hh:mm:ss) UTC,Instrument flags,absolute air pressure of the measurement (hPa),sample flow rate (lpm),inlet stack bypass flow (lpm),air temperature of the measurement (°C),ambient temperature measured by the external sensor (°C),aerosol sample conditioner tube jacket temperature (°C),OPC LED temperature (°C),internal box temperature (°C),relative humidity of the measurement (%),span deviation,mass concentration of particles derived from Lorenz-Mie calculation of OPC scattering (μg/m³),mass concentration of particles derived from Lorenz-Mie calculation of OPC scattering (μg/m³),mass concentration of particles derived from Lorenz-Mie calculation of OPC scattering (μg/m³)
DateTimeUTC,F1_M11,P_M11,Q1_M11,Q2_M11,T1_M11,T2_M11,T3_M11,T4_M11,T5_M11,U1_M11,ZSPAN_M11,X0_M11,X2_M11,X1_M11
2024-05-08 09:00:00,SystemResetWarning,0818.0,4.99,000.00,020.7,020.0,000.0,028.9,022.3,010.1,0000.0,0002.70,0000.92,0000.53
2024-05-08 09:01:00,SystemResetWarning,0817.9,4.99,000.00,020.7,020.0,000.0,028.9,022.3,009.9,0000.0,0002.82,0000.94,0000.53
2024-05-08 09:02:00,SystemResetWarning,0817.8,4.99,000.00,020.7,020.0,000.0,028.9,022.3,009.9,0000.0,0002.81,0000.91,0000.53
2024-05-08 09:03:00,SystemResetWarning,0817.8,5.02,000.00,020.7,020.0,000.0,028.9,022.3,010.1,0000.0,0002.76,0000.89,0000.53
2024-05-08 09:04:00,SystemResetWarning,0817.9,5.00,000.00,020.6,020.0,000.0,028.9,022.3,010.2,0000.0,0002.77,0000.88,0000.53
2024-05-08 09:05:00,SystemResetWarning,0817.9,5.00,000.00,020.6,020.0,000.0,028.9,022.3,010.1,0000.0,0002.83,0000.92,0000.55
2024-05-08 09:06:00,SystemResetWarning,0817.8,4.99,000.00,020.6,020.0,000.0,028.9,022.3,009.9,0000.0,0002.88,0000.95,0000.55
2024-05-08 09:07:00,SystemResetWarning,0817.9,4.99,000.00,020.7,020.0,000.0,028.9,022.3,009.8,0000.0,0002.14,0000.93,0000.55
2024-05-08 09:08:00,SystemResetWarning,0817.9,5.00,000.00,020.7,020.0,000.0,028.9,022.3,009.7,0000.0,0001.94,0000.97,0000.55
2024-05-08 09:09:00,SystemResetWarning,0817.9,5.02,000.00,020.7,020.0,000.0,028.9,022.3,009.5,0000.0,0002.12,0001.00,0000.54
2024-05-08 09:10:00,SystemResetWarning,0817.9,5.00,000.00,020.7,020.0,000.0,028.9,022.3,009.5,0000.0,0002.16,0001.01,0000.55
2024-05-08 09:11:00,SystemResetWarning,0817.9,4.99,000.00,020.6,020.0,000.0,028.9,022.3,009.5,0000.0,0002.07,0001.03,0000.55
2024-05-08 09:12:00,SystemResetWarning,0818.0,4.99,000.00,020.6,020.0,000.0,028.9,022.3,009.4,0000.0,0001.94,0001.01,0000.55
2024-05-08 09:13:00,SystemResetWarning,0817.9,5.00,000.00,020.7,020.0,000.0,028.9,022.3,009.4,0000.0,0001.94,0001.02,0000.55
2024-05-08 09:14:00,SystemResetWarning,0817.8,5.01,000.00,020.7,020.0,000.0,028.9,022.3,009.4,0000.0,0002.01,0001.04,0000.55
2024-05-08 09:15:00,SystemResetWarning,0817.8,5.01,000.00,020.7,020.1,000.0,028.9,022.3,009.5,0000.0,0002.06,0001.06,0000.55
2024-05-08 09:16:00,SystemResetWarning,0817.8,4.99,000.00,020.7,020.1,000.0,028.9,022.3,010.0,0000.0,0002.01,0001.03,0000.54
2024-05-08 09:17:00,SystemResetWarning,0817.8,4.99,000.00,020.7,020.1,000.0,028.9,022.3,009.6,0000.0,0002.00,0001.01,0000.54
2024-05-08 09:18:00,SystemResetWarning,0817.7,5.00,000.00,020.7,020.1,000.0,028.9,022.3,009.3,0000.0,0002.06,0001.02,0000.54
2024-05-08 09:19:00,SystemResetWarning,0817.8,5.00,000.00,020.7,020.1,000.0,028.9,022.3,009.4,0000.0,0001.96,0000.97,0000.53
2024-05-08 09:20:00,SystemResetWarning,0817.8,5.01,000.00,020.7,020.1,000.0,028.9,022.3,009.6,0000.0,0001.72,0000.91,0000.54
2024-05-08 09:21:00,SystemResetWarning,0817.9,5.00,000.00,020.7,020.0,000.0,028.9,022.3,009.5,0000.0,0001.69,0000.91,0000.54
2024-05-08 09:22:00,SystemResetWarning,0817.9,5.00,000.00,020.7,020.0,000.0,028.9,022.3,009.4,0000.0,0001.66,0000.87,0000.53
2024-05-08 09:23:00,SystemResetWarning,0818.0,4.99,000.00,020.7,020.0,000.0,028.9,022.3,009.5,0000.0,0001.75,0000.92,0000.54
2024-05-08 09:24:00,SystemResetWarning,0817.9,5.00,000.00,020.7,020.0,000.0,028.9,022.3,009.4,0000.0,0001.72,0000.91,0000.54
2024-05-08 09:25:00,SystemResetWarning,0817.8,5.02,000.00,020.7,020.1,000.0,028.9,022.3,009.3,0000.0,0001.96,0000.96,0000.54
2024-05-08 09:26:00,SystemResetWarning,0817.7,5.00,000.00,020.7,020.1,000.0,028.9,022.3,009.4,0000.0,0002.77,0000.95,0000.53
2024-05-08 09:27:00,SystemResetWarning,0817.8,5.00,000.00,020.7,020.1,000.0,028.9,022.3,009.6,0000.0,0002.92,0001.00,0000.53
2024-05-08 09:28:00,SystemResetWarning,0817.8,5.00,000.00,020.7,020.1,000.0,028.9,022.3,009.7,0000.0,0002.97,0001.02,0000.53
2024-05-08 09:29:00,SystemResetWarning,0817.8,4.99,000.00,020.7,020.0,000.0,028.9,022.3,009.7,0000.0,0002.99,0001.00,0000.52
2024-05-08 09:30:00,SystemResetWarning,0817.8,5.00,000.00,020.7,020.0,000.0,028.9,022.3,009.8,0000.0,0003.30,0001.03,0000.53
2024-05-08 09:31:00,SystemResetWarning,0817.7,5.01,000.00,020.7,020.1,000.0,028.9,022.3,009.7,0000.0,0003.54,0001.05,0000.53
2024-05-08 09:32:00,SystemResetWarning,0817.8,5.00,000.00,020.7,020.1,000.0,028.9,022.3,009.9,0000.0,0003.52,0001.05,0000.53
2024-05-08 09:33:00,SystemResetWarning,0817.8,5.00,000.00,020.7,020.1,000.0,029.0,022.3,009.9,0000.0,0003.45,0001.03,0000.53
2024-05-08 09:34:00,SystemResetWarning,0817.8,5.00,000.00,020.7,020.1,000.0,029.0,022.3,010.0,0000.0,0003.40,0000.98,0000.52
2024-05-08 09:35:00,SystemResetWarning,0817.8,4.99,000.00,020.7,020.1,000.0,029.0,022.4,009.8,0000.0,0003.44,0000.98,0000.52
2024-05-08 09:36:00,SystemResetWarning,0817.8,4.99,000.00,020.7,020.1,000.0,029.0,022.4,009.9,0000.0,0003.23,0000.95,0000.52
2024-05-08 09:37:00,SystemResetWarning,0817.8,5.00,000.00,020.7,020.1,000.0,029.0,022.4,009.9,0000.0,0002.35,0000.97,0000.53
2024-05-08 09:38:00,SystemResetWarning,0817.8,5.02,000.00,020.7,020.1,000.0,029.0,022.4,009.4,0000.0,0002.40,0000.98,0000.53
2024-05-08 09:39:00,SystemResetWarning,0817.8,4.99,000.00,020.7,020.1,000.0,029.0,022.4,009.2,0000.0,0002.56,0001.06,0000.53
2024-05-08 09:40:00,SystemResetWarning,0817.9,5.00,000.00,020.7,020.1,000.0,029.0,022.4,009.2,0000.0,0002.58,0001.08,0000.53
2024-05-08 09:41:00,SystemResetWarning,0817.9,5.00,000.00,020.7,020.1,000.0,029.0,022.4,009.2,0000.0,0002.41,0001.11,0000.54
2024-05-08 09:42:00,SystemResetWarning,0817.8,5.00,000.00,020.7,020.1,000.0,029.0,022.4,009.2,0000.0,0002.38,0001.18,0000.55
2024-05-08 09:43:00,SystemResetWarning,0817.8,5.00,000.00,020.7,020.1,000.0,029.0,022.4,009.2,0000.0,0002.50,0001.21,0000.55
2024-05-08 09:44:00,SystemResetWarning,0817.9,5.00,000.00,020.7,020.1,000.0,029.0,022.4,009.3,0000.0,0002.51,0001.22,0000.56
2024-05-08 09:45:00,SystemResetWarning,0818.0,5.00,000.00,020.7,020.1,000.0,029.0,022.4,009.2,0000.0,0002.57,0001.28,0000.57
2024-05-08 09:46:00,SystemResetWarning,0818.0,5.00,000.00,020.7,020.1,000.0,029.0,022.4,009.0,0000.0,0002.54,0001.27,0000.56
2024-05-08 09:47:00,SystemResetWarning,0818.0,5.00,000.00,020.7,020.1,000.0,029.0,022.4,008.9,0000.0,0002.54,0001.26,0000.56
2024-05-08 09:48:00,SystemResetWarning,0818.0,5.00,000.00,020.7,020.1,000.0,029.0,022.4,008.9,0000.0,0002.50,0001.23,0000.55
2024-05-08 09:49:00,SystemResetWarning,0818.0,5.00,000.00,020.7,020.1,000.0,029.0,022.4,009.1,0000.0,0002.42,0001.22,0000.56
2024-05-08 09:50:00,SystemResetWarning,0818.0,5.00,000.00,020.7,020.1,000.0,029.0,022.4,008.9,0000.0,0002.27,0001.14,0000.55
2024-05-08 09:51:00,SystemResetWarning,0818.0,5.01,000.00,020.7,020.1,000.0,029.0,022.4,009.1,0000.0,0002.36,0001.14,0000.56
2024-05-08 09:52:00,SystemResetWarning,0818.0,5.00,000.00,020.7,020.1,000.0,029.0,022.4,009.1,0000.0,0002.37,0001.15,0000.56
2024-05-08 09:53:00,SystemResetWarning,0818.0,5.01,000.00,020.7,020.1,000.0,029.0,022.4,009.1,0000.0,0002.39,0001.12,0000.56
2024-05-08 09:54:00,SystemResetWarning,0818.0,5.00,000.00,020.7,020.1,000.0,029.0,022.4,009.2,0000.0,0002.18,0001.05,0000.55
2024-05-08 09:55:00,SystemResetWarning,0818.0,5.01,000.00,020.7,020.1,000.0,029.0,022.4,009.2,0000.0,0002.24,0001.07,0000.56
2024-05-08 09:56:00,SystemResetWarning,0818.0,5.00,000.00,020.7,020.1,000.0,028.9,022.4,009.1,0000.0,0002.29,0001.07,0000.56
2024-05-08 09:57:00,SystemResetWarning,0818.0,4.99,000.00,020.7,020.1,000.0,028.9,022.4,009.2,0000.0,0002.33,0001.09,0000.57
2024-05-08 09:58:00,SystemResetWarning,0818.0,4.99,000.00,020.7,020.0,000.0,028.9,022.3,009.2,0000.0,0002.30,0001.09,0000.58
2024-05-08 09:59:00,SystemResetWarning,0818.1,5.00,000.00,020.7,020.0,000.0,028.9,022.3,009.2,0000.0,0002.28,0001.09,0000.59
